www.pogodaiklimat.ru

Погода и климат >> Архив погоды >> Индия >> Мадхья-Прадеш >> Кхаджурахо


ПОГОДА в Кхаджурахо

  • Прогноз погоды в Кхаджурахо
  • Монитор погоды в Кхаджурахо

АРХИВ ПОГОДЫ в Кхаджурахо

Время (UTC), дата Ветер
(напр.,м/с)
 
Видим.   Явления Облачность Т
(С)
Тd
(С)
f
(%)
Тe
(С)
Тes
(С)
Комфортность P
(гПа)
Po
(гПа)
Тmin
(С)
Tmax
(С)
R
(мм)
R24
(мм)
S
(см)
03 12.08 З 3 4000 м мгла 8/4 600 м
[Sc Ac trans]
+28.6 +24.0 76 +40 +42 очень
душно
1001.7 976.9 +26.0
06 12.08 З 2 4000 м 8/3 900 м
[Cu hum Ac trans]
+32.0 +25.8 70 +47 +56 опасность
перегрева
1001.2 976.7
09 12.08 З 4 4000 м 6/4 750 м
[Cu med, cong Ac trans]
+32.6 +26.2 69 +49 +53 опасность
перегрева
998.1 973.7
12 12.08 З 3 4000 м 8/4 600 м
[Sc Ac trans]
+30.0 +25.8 78 +45 +45 опасность
перегрева
997.5 973.0 +33.0
03 13.08 З 2 4000 м мгла 10/5 540 м
[St As op]
+28.4 +25.0 82 +41 +42 опасность
перегрева
999.8 975.1 +24.0 13
09 13.08 З 3 4000 м мгла {дождь} 8/4 600 м
[St Ac trans]
+27.6 +24.7 84 +39 +44 очень
душно
998.6 973.8 4
12 13.08 З 3 4000 м мгла {дождь} 8/4 600 м
[Sc Ac trans]
+27.6 +24.0 81 +38 +39 очень
душно
998.6 973.8 +29.0 43
03 14.08 З 2 4000 м мгла {дождь} 10/6 360 м
[Frnb Ac trans]
+27.0 +24.7 87 +38 +40 очень
душно
1000.0 975.2 +24.6 51
06 14.08 В 3 4000 м мгла {дождь} 8/4 600 м
[St Ac trans]
+27.6 +25.3 87 +40 +46 очень
душно
999.4 974.6 4
09 14.08 С 2 4000 м мгла {дождь} 8/4 900 м
[St Ac trans]
+29.0 +27.4 91 +47 +52 опасность
перегрева
997.4 972.8 7
12 14.08 В 4 4000 м гроза без осадков 10/6 450 м
[Cb cap As op]
+27.6 +25.3 87 +40 +40 очень
душно
995.6 970.9 +30.0 7
03 15.08 Ю 3 4000 м слаб. дождь 10/5 540 м
[St As op]
+26.0 +24.6 92 +37 +37 очень
душно
998.2 973.3 +2.4 77
06 15.08 Ю 5 4000 м мгла 9/5 360 м
[Frnb Ac trans]
+27.0 +25.0 89 +39 +42 очень
душно
999.1 974.3
09 15.08 ЮЗ 7 4000 м мгла 8/5 600 м
[Cu Sc Ac trans]
+28.4 +25.0 82 +41 +42 опасность
перегрева
997.7 973.0
12 15.08 Ю 6 4000 м мгла 9/5 600 м
[Cu Sc Ac trans]
+27.2 +24.0 83 +38 +38 очень
душно
997.2 972.4 +29.4
03 16.08 ЮЗ 5 4000 м мгла 8/4 600 м
[Sc Ac trans]
+28.6 +22.4 69 +37 +39 очень
душно
1000.9 976.2 +24.6
06 16.08 ЮЗ 4 4000 м 8/4 600 м
[Sc Ac trans]
+29.0 +24.1 75 +40 +45 очень
душно
1000.7 976.0
09 16.08 З 4 4000 м 6/4 750 м
[Cu med, cong Ac trans]
+32.0 +25.5 69 +47 +51 опасность
перегрева
999.8 975.4
12 16.08 З 3 4000 м 8/4 600 м
[Sc Ac trans]
+29.0 +23.2 71 +39 +39 очень
душно
998.7 974.0 +32.4
03 17.08 З 2 4000 м 4/0
[Ci fib]
+28.2 +25.3 84 +41 +48 опасность
перегрева
1001.2 976.4 +24.8
06 17.08 З 2 4000 м 8/8 750 м
[Sc diur, vesp Ac trans]
+31.4 +25.2 70 +45 +50 опасность
перегрева
1002.9 978.3
09 17.08 З 3 4000 м 8/5 750 м
[St Ac trans]
+29.6 +24.5 74 +42 +46 опасность
перегрева
1000.9 976.2
12 17.08 З 3 4000 м 4/4 900 м
[Cu hum]
+31.6 +25.4 70 +46 +47 опасность
перегрева
999.9 975.4 +32.3
03 18.08 СЗ 2 4000 м 4/0
[Ci fib]
+28.0 +24.5 81 +39 +47 очень
душно
1004.9 980.0 +24.5 2
06 18.08 З 2 4000 м 4/3 1050 м
[Cu hum Ci fib]
+31.4 +24.6 67 +44 +58 опасность
перегрева
1004.3 979.7
09 18.08 штиль 0 4000 м 4/4 900 м
[Cu med, cong]
+33.0 +26.0 67 +49 +61 опасность
перегрева
1002.2 977.8
12 18.08 штиль 0 4000 м 4/4 900 м
[Cu med, cong]
+31.6 +25.7 71 +47 +48 опасность
перегрева
1001.6 977.1 +33.3

 

Местоположение метеостанции Кхаджурахо (Мадхья-Прадеш, Индия): широта 24.98 долгота 79.92 высота над уровнем моря 221 м.

В архиве по умолчанию представлена погода в Кхаджурахо за последнюю неделю. Архивные данные за месяц целиком и за предыдущие месяцы, начиная с января 2011 года, Вы можете получить, выбрав интересующий диапазон дат из раскрывающегося списка и нажав кнопку "Ввод!".


*Определитесь, кто Вы:
робот инопланетянин человек

Внимание! Время в таблицах - всемирное. Для получения местного времени необходимо прибавить поправку, которая равна 5.5 ч.

Смотрите также архив погоды в соседних городах и на ближайших метеорологических станциях:

Погода в Ноугонге (Мадхья-Прадеш, Индия) (48 км)
Погода в Банде (Уттар-Прадеш, Индия) (71 км)
Погода в Сатне (Мадхья-Прадеш, Индия) (103 км)
Погода в Хамирпуре (Уттар-Прадеш, Индия) (110 км)
Погода в Тикамгархе (Мадхья-Прадеш, Индия) (112 км)
Погода в Дамо (Мадхья-Прадеш, Индия) (136 км)
Погода в Джханси (Уттар-Прадеш, Индия) (141 км)
Погода в Реве (Мадхья-Прадеш, Индия) (148 км)
Погода в Сагаре (Мадхья-Прадеш, Индия) (173 км)
Погода в Умарии (Мадхья-Прадеш, Индия) (188 км)

Пояснения к столбцам:

Ветер - указаны скорость ветра в м/с - средняя за 10 мин, порывы в срок и между сроками (в фигурных скобках) и направление, откуда дует ветер: С - северный, СВ - северо-восточный, В - восточный, ЮВ - юго-восточный, Ю - южный, ЮЗ - юго-западный, З - западный, СЗ - северо-западный.
Видимость - горизонтальная дальность видимости в метрах или километрах. При видимости от 1 до 10 км при отсутствии осадков обычно наблюдается дымка, при ухудшении видимости до 1 км и менее - туман. В сухую погоду видимость может ухудшаться дымом, пылью или мглою.
Явления - указаны атмосферные явления, наблюдавшиеся в срок или в последний час перед сроком; фигурными скобками обозначены явления, наблюдавшиеся между сроками (за 1-3 часа до срока); квадратными скобками обозначены град или гололедные отложения с указанием их диаметра в мм.
Облачность - указаны через наклонную черту общая и нижняя облачность в баллах и высота нижней границы облаков в метрах; квадратными скобками обозначены формы облаков: Ci - перистые, Cs - перисто-слоистые, Cc - перисто-кучевые, Ac - высококучевые, As - высокослоистые, Sc - слоисто-кучевые, Ns - слоисто-дождевые, Cu - кучевые, Cb - кучево-дождевые. Подробнее классификацию облаков см. в Атласе облаков (PDF).
T - Температура воздуха - температура, измеренная на высоте 2 м над землей.
Td - Температура точки росы - температура, при понижении до которой содержащийся в воздухе водяной пар достигнет насыщения.
f - Относительная влажность воздуха - влажноcть воздуха, измеренная на высоте 2 м над землей.
Te - Эффективная температура - температура, которую ощущает одетый по сезону человек в тени. Характеристика душности погоды. При расчете учитывается влияние влажности воздуха и скорости ветра на теплоощущения человека.
Tes - Эффективная температура на солнце - температура, которую ощущает человек, с поправкой на солнечный нагрев. Характеристика знойности погоды. Зависит от высоты солнца над горизонтом, облачности и скорости ветра. Ночью, в пасмурную погоду, а также при ветре 12 м/с и более поправка равна нулю.
P - Атмосферное давление - приведенное к уровню моря атмосферное давление.
Po - Атмосферное давление - измеренное на уровне метеостанции атмосферное давление.
Tmin - Минимальная температура - минимум температуры воздуха на высоте 2 м над землей.
Tmax - Максимальная температура - максимум температуры воздуха на высоте 2 м над землей.
R - Количество осадков - Количество выпавших осадков за период времени, мм. При наведении курсора мыши на число - период времени, за который выпало указанное количество осадков.
R24 - Количество осадков - Количество выпавших осадков за 24 часа, мм.
S - Снежный покров - Высота снежного покрова, см. При наведении курсора мыши на число - состояние снежного покрова и степень покрытия местности в баллах.